[[{"header":{"parameterUnit":"m.s-1","parameterCategory":1,"la1":30.2991,"la2":30.254,"lo1":-89.0895,"lo2":-89.0444,"dy":0.0017,"dx":0.0017,"nx":28,"ny":28,"refTime":"2024-05-28T03:00:00:Z","depth":0,"parameterNumber":2,"parameterNumberName":"U-component_of_WINDS"},"data":[0,0,0,0,0,0,0,0,0,0,0,0,0,0,0,0,0,0,0,0,0,0,0,0,0,0,0,0,0,0,0,0,0,0,0,0,0,0,0,0,0,0,0,0,0,0,0,0,0,0,0,0,0,0,0,0,0,0,-3.1119,-3.1119,0,-3.1089,-3.1089,-3.1089,-3.1049,-3.1048,-3.1048,-3.1047,-3.1013,-3.1013,-3.1013,0,0,0,0,0,0,0,0,0,0,0,0,0,-3.1144,-3.1143,-3.112,-3.1119,-3.1119,-3.1089,-3.1089,-3.1088,-3.1049,-3.1048,-3.1047,-3.1047,-3.1013,-3.1013,-3.1013,0,0,0,0,0,0,0,0,0,0,0,0,0,-3.1125,-3.1143,-3.112,-3.1096,-3.1093,-3.1089,-3.1089,-3.1088,-3.1049,-3.1048,-3.1047,-3.1046,-3.1014,-3.1013,-3.1013,-3.1029,0,0,-3.1011,-3.1011,0,0,0,0,0,0,0,0,-3.1126,-3.1124,-3.1099,-3.1097,-3.1094,-3.1072,-3.1085,-3.1068,-3.1049,-3.1066,-3.1047,-3.1046,-3.1033,-3.1031,-3.1028,-3.1028,-3.1026,-3.1011,-3.1011,-3.1011,-3.1011,0,0,0,0,0,0,0,-3.1128,-3.1125,-3.1107,-3.1099,-3.1096,-3.1087,-3.1083,-3.1082,-3.1055,-3.1064,-3.1061,-3.1058,-3.1032,-3.1028,-3.1027,-3.1026,-3.1011,-3.1011,-3.1011,-3.101,-3.1041,-3.1042,0,0,0,0,0,0,-3.1133,-3.1127,-3.1108,-3.1107,-3.1108,-3.1087,-3.1083,-3.108,-3.1055,-3.1051,-3.1059,-3.1057,-3.1029,-3.1027,-3.1025,-3.1044,-3.1011,-3.101,-3.101,-3.104,-3.1041,-3.1042,0,0,0,0,0,0,-3.1133,-3.1131,-3.111,-3.1116,-3.1112,-3.1088,-3.1085,-3.108,-3.1076,-3.1051,-3.1046,-3.106,-3.1029,-3.1026,-3.1029,-3.1042,-3.101,-3.101,-3.1039,-3.104,-3.1042,-3.108,0,0,0,0,0,0,-3.1134,-3.1132,-3.1137,-3.1116,-3.1112,-3.1114,-3.1086,-3.108,-3.1076,-3.1072,-3.1051,-3.1047,-3.1028,-3.103,-3.1029,-3.1041,-3.101,-3.1037,-3.1039,-3.1041,-3.1078,-3.1083,-3.1087,0,0,0,0,0,-3.1135,-3.1148,-3.1138,-3.1136,-3.1119,-3.1115,-3.1112,-3.1091,-3.1077,-3.1082,-3.1068,-3.1047,-3.1042,-3.1031,-3.1029,-3.1041,-3.1036,-3.1039,-3.1041,-3.1075,-3.1082,-3.1087,0,0,0,0,0,0,-3.1169,-3.1145,-3.1133,-3.114,-3.113,-3.1108,-3.1114,-3.1098,-3.1091,-3.1087,-3.1061,-3.1057,-3.1064,-3.1053,-3.1041,-3.1057,-3.1036,-3.1038,-3.1063,-3.1069,-3.1074,-3.1075,-3.1009,0,0,0,0,0,-3.1178,-3.1177,-3.1156,-3.1164,-3.116,-3.1138,-3.1136,-3.1121,-3.1109,-3.1104,-3.1089,-3.1078,-3.1074,-3.1071,-3.1066,-3.1078,-3.1073,-3.1085,-3.109,-3.1095,-3.1096,-3.1102,-3.1108,-3.105,-3.105,-3.105,0,0,-3.1194,-3.1181,-3.1182,-3.117,-3.1161,-3.1161,-3.1134,-3.1135,-3.1134,-3.1104,-3.1106,-3.1096,-3.1082,-3.109,-3.1093,-3.1081,-3.1111,-3.1098,-3.1101,-3.11,-3.1105,-3.1111,-3.1116,-3.1052,-3.1052,-3.1051,0,0,-3.1225,-3.1215,-3.1221,-3.1213,-3.1201,-3.1187,-3.1189,-3.1171,-3.1163,-3.1166,-3.1143,-3.1143,-3.1136,-3.1128,-3.1123,-3.1157,-3.1138,-3.1156,-3.118,-3.1187,-3.1191,-3.1195,-3.1206,-3.1211,-3.1158,-3.1158,-3.1158,0,-3.1246,-3.1245,-3.1226,-3.1229,-3.1225,-3.12,-3.1207,-3.12,-3.1186,-3.1184,-3.1172,-3.1166,-3.1154,-3.1161,-3.117,-3.1167,-3.1168,-3.1156,-3.1193,-3.1196,-3.1199,-3.121,-3.1214,-3.116,-3.116,-3.116,-3.1159,0,-3.1273,-3.1273,-3.128,-3.1269,-3.1266,-3.1271,-3.1253,-3.1253,-3.124,-3.1228,-3.1232,-3.122,-3.1212,-3.1214,-3.12,-3.1219,-3.1212,-3.1198,-3.1175,-3.1207,-3.1217,-3.1221,-3.1163,-3.1162,-3.1162,-3.1161,0,0,-3.1318,-3.13,-3.1303,-3.1299,-3.1285,-3.1285,-3.129,-3.1284,-3.1285,-3.1278,-3.1281,-3.1279,-3.1266,-3.126,-3.1246,-3.1253,-3.1281,-3.1237,-3.1236,-3.1244,-3.1301,-3.1311,-3.1316,-3.127,-3.1271,-3.1272,-3.1302,0,-3.1344,-3.1351,-3.1336,-3.1346,-3.1347,-3.1327,-3.1331,-3.1324,-3.1314,-3.1314,-3.1303,-3.1302,-3.1285,-3.1282,-3.1288,-3.1276,-3.1291,-3.1274,-3.1272,-3.1272,-3.1273,-3.132,-3.133,-3.1359,-3.1306,-3.1306,-3.1307,0,-3.1374,-3.1371,-3.1381,-3.137,-3.137,-3.1374,-3.1369,-3.1369,-3.1362,-3.1355,-3.1351,-3.1336,-3.1341,-3.1324,-3.133,-3.1319,-3.1318,-3.1313,-3.1314,-3.131,-3.1289,-3.1316,-3.1367,-3.1371,-3.1312,-3.1312,-3.1311,0,-3.1405,-3.1403,-3.141,-3.1407,-3.1394,-3.1398,-3.1393,-3.1385,-3.1383,-3.138,-3.1379,-3.1376,-3.1374,-3.1373,-3.1358,-3.1346,-3.1367,-3.1347,-3.136,-3.136,-3.1362,-3.1361,-3.1411,-3.1366,-3.1366,-3.1366,-3.1366,0,-3.1434,-3.1441,-3.1424,-3.1427,-3.1436,-3.142,-3.1429,-3.1422,-3.1416,-3.1418,-3.1402,-3.1404,-3.1386,-3.1387,-3.1376,-3.1384,-3.1383,-3.1377,-3.1374,-3.1377,-3.1378,-3.1374,-3.137,-3.1367,-3.1367,-3.1367,-3.1366,0,-3.1467,-3.1456,-3.1462,-3.1452,-3.1449,-3.1456,-3.1446,-3.145,-3.1442,-3.1446,-3.1446,-3.1432,-3.1433,-3.142,-3.1418,-3.141,-3.1422,-3.1416,-3.1424,-3.1422,-3.1435,-3.1433,-3.1482,-3.1487,-3.1441,-3.1441,-3.1442,0,-3.1485,-3.149,-3.1482,-3.1483,-3.1479,-3.1481,-3.148,-3.1467,-3.1467,-3.1462,-3.1466,-3.1467,-3.1465,-3.1468,-3.1458,-3.1457,-3.145,-3.1468,-3.1449,-3.1453,-3.1448,-3.1447,-3.1448,-3.147,-3.147,-3.1471,-3.1471,0,-3.1517,-3.1513,-3.1513,-3.1513,-3.1513,-3.1512,-3.1509,-3.1511,-3.1497,-3.1498,-3.15,-3.15,-3.1499,-3.15,-3.1498,-3.1493,-3.148,-3.1478,-3.1481,-3.1482,-3.1486,-3.1483,-3.1432,-3.1476,-3.1475,-3.1475,-3.1475,-3.1474,-3.1542,-3.1547,-3.1542,-3.1544,-3.1541,-3.154,-3.1544,-3.1538,-3.1539,-3.1538,-3.1531,-3.1534,-3.153,-3.1526,-3.1523,-3.1526,-3.1517,-3.1522,-3.1522,-3.1523,-3.1525,-3.1489,-3.1526,-3.1526,-3.1526,-3.1526,-3.1525,0,-3.1573,-3.157,-3.1572,-3.157,-3.1572,-3.1563,-3.1561,-3.1562,-3.1566,-3.1564,-3.1564,-3.1567,-3.1569,-3.1561,-3.1562,-3.1566,-3.156,-3.1566,-3.1564,-3.1563,-3.1533,-3.153,-3.1571,-3.1571,-3.1571,-3.1571,-3.1571,-3.1571,-3.1589,-3.1596,-3.1592,-3.1599,-3.1596,-3.16,-3.1599,-3.1599,-3.1597,-3.1602,-3.1603,-3.1599,-3.1595,-3.1596,-3.1598,-3.1596,-3.1596,-3.1604,-3.1599,-3.157,-3.1565,-3.1561,-3.1558,-3.1604,-3.1605,-3.1629,-3.163,-3.163]},{"header":{"parameterUnit":"m.s-1","parameterCategory":1,"la1":30.2991,"la2":30.254,"lo1":-89.0895,"lo2":-89.0444,"dy":0.0017,"dx":0.0017,"nx":28,"ny":28,"refTime":"2024-05-28T03:00:00:Z","depth":0,"parameterNumber":3,"parameterNumberName":"V-component_of_WINDS"},"data":[0,0,0,0,0,0,0,0,0,0,0,0,0,0,0,0,0,0,0,0,0,0,0,0,0,0,0,0,0,0,0,0,0,0,0,0,0,0,0,0,0,0,0,0,0,0,0,0,0,0,0,0,0,0,0,0,0,0,2.7812,2.7813,0,2.7833,2.7834,2.7834,2.7872,2.7872,2.7873,2.7874,2.789,2.789,2.789,0,0,0,0,0,0,0,0,0,0,0,0,0,2.7802,2.7802,2.7812,2.7813,2.7813,2.7833,2.7834,2.7834,2.7871,2.7872,2.7873,2.7874,2.789,2.789,2.789,0,0,0,0,0,0,0,0,0,0,0,0,0,2.7813,2.7802,2.7812,2.7834,2.7837,2.7833,2.7834,2.7834,2.7871,2.7872,2.7873,2.7875,2.789,2.789,2.789,2.7865,0,0,2.7889,2.7888,0,0,0,0,0,0,0,0,2.7812,2.7813,2.7831,2.7833,2.7835,2.7851,2.7836,2.7844,2.7871,2.7858,2.7874,2.7875,2.7876,2.7877,2.7878,2.7866,2.7867,2.7889,2.7888,2.7888,2.7888,0,0,0,0,0,0,0,2.7812,2.7813,2.7821,2.7831,2.7834,2.7842,2.7845,2.7838,2.786,2.7859,2.7862,2.7864,2.7877,2.7879,2.7879,2.7867,2.7889,2.7888,2.7888,2.7888,2.7837,2.7836,0,0,0,0,0,0,2.7808,2.7812,2.782,2.7821,2.7826,2.7841,2.7845,2.7845,2.7861,2.7864,2.7863,2.7866,2.7879,2.7879,2.788,2.7853,2.7888,2.7888,2.7888,2.7838,2.7837,2.7835,0,0,0,0,0,0,2.7808,2.7809,2.7819,2.7817,2.7819,2.784,2.784,2.7845,2.7846,2.7864,2.7868,2.786,2.788,2.788,2.7869,2.7854,2.7888,2.7887,2.7839,2.7838,2.7836,2.7798,0,0,0,0,0,0,2.7807,2.7808,2.78,2.7817,2.7819,2.7809,2.784,2.7844,2.7846,2.7849,2.7862,2.7865,2.788,2.787,2.7869,2.7854,2.7887,2.7841,2.7839,2.7837,2.78,2.7795,2.779,0,0,0,0,0,2.7807,2.7787,2.7799,2.78,2.7809,2.7808,2.7809,2.7829,2.7844,2.7835,2.7847,2.7865,2.7856,2.7868,2.7868,2.7852,2.7842,2.7839,2.7837,2.7803,2.7796,2.779,0,0,0,0,0,0,2.7765,2.7789,2.7803,2.7788,2.7796,2.7815,2.7804,2.7821,2.7823,2.7826,2.7849,2.7851,2.7837,2.7844,2.7857,2.783,2.7852,2.7849,2.7826,2.782,2.7815,2.7813,2.7887,0,0,0,0,0,2.7754,2.7753,2.7773,2.7758,2.7762,2.7782,2.7782,2.7797,2.7805,2.7808,2.7819,2.7825,2.7824,2.7822,2.7822,2.7802,2.7805,2.7791,2.7786,2.7782,2.7779,2.7769,2.7763,2.7827,2.7827,2.7827,0,0,2.7731,2.7745,2.7742,2.775,2.7758,2.7755,2.7784,2.7779,2.7777,2.7807,2.7798,2.7806,2.7814,2.7799,2.7793,2.7804,2.7762,2.7779,2.7775,2.7774,2.7766,2.776,2.7755,2.7825,2.7826,2.7826,0,0,2.7688,2.7698,2.7687,2.7695,2.7707,2.7722,2.7719,2.7735,2.7743,2.7734,2.7757,2.7754,2.7751,2.7757,2.7759,2.772,2.7736,2.772,2.7692,2.7683,2.7678,2.7673,2.7659,2.7654,2.7717,2.7717,2.7717,0,2.7658,2.7655,2.7679,2.7673,2.7676,2.7706,2.7694,2.77,2.7711,2.7712,2.7725,2.7723,2.7731,2.7718,2.7709,2.7709,2.7707,2.7717,2.7677,2.7673,2.7669,2.7656,2.7651,2.7714,2.7715,2.7715,2.7715,0,2.7617,2.7615,2.7605,2.7617,2.7619,2.761,2.7632,2.7631,2.7646,2.7658,2.7649,2.766,2.7663,2.7661,2.7675,2.765,2.7657,2.7673,2.7695,2.766,2.7648,2.7644,2.7711,2.7712,2.7713,2.7713,0,0,2.7546,2.7574,2.7569,2.7576,2.7592,2.7591,2.7583,2.7588,2.7587,2.7594,2.7588,2.7586,2.7602,2.7604,2.7619,2.7611,2.758,2.7628,2.7629,2.7618,2.7553,2.754,2.7534,2.7591,2.7591,2.759,2.7552,0,2.7507,2.7497,2.7519,2.7504,2.7502,2.7531,2.7525,2.7534,2.7546,2.7545,2.7558,2.7557,2.7577,2.7579,2.7573,2.7585,2.7567,2.7588,2.7585,2.7584,2.7581,2.7528,2.7514,2.7478,2.7548,2.7547,2.7547,0,2.7458,2.7465,2.745,2.7469,2.7469,2.7463,2.747,2.747,2.7481,2.749,2.7494,2.7512,2.7506,2.7528,2.752,2.7534,2.7534,2.754,2.7539,2.7538,2.7563,2.7526,2.7467,2.7462,2.754,2.754,2.7541,0,2.7408,2.7413,2.7405,2.741,2.7432,2.7427,2.7436,2.7448,2.745,2.7456,2.7457,2.7461,2.7463,2.7465,2.7484,2.7499,2.7473,2.7497,2.7479,2.7479,2.7472,2.7472,2.7412,2.7473,2.7473,2.7473,2.7473,0,2.7361,2.735,2.7383,2.7378,2.7368,2.7393,2.7381,2.7393,2.7404,2.7401,2.7426,2.7422,2.7447,2.7446,2.7461,2.7451,2.7452,2.7459,2.7462,2.7456,2.7455,2.7456,2.7458,2.7472,2.7472,2.7472,2.7473,0,2.7302,2.7324,2.7317,2.734,2.7345,2.7336,2.7355,2.735,2.7365,2.7361,2.7361,2.7383,2.7384,2.7403,2.7407,2.7417,2.7401,2.7409,2.7397,2.74,2.7381,2.7383,2.7319,2.7312,2.7378,2.7377,2.7377,0,2.727,2.7263,2.7286,2.7286,2.7294,2.7295,2.7298,2.7323,2.7324,2.7338,2.7332,2.7335,2.7338,2.7337,2.7352,2.7355,2.7364,2.7342,2.7364,2.7358,2.7363,2.7363,2.7362,2.7336,2.7335,2.7335,2.7334,0,2.7211,2.7223,2.7227,2.7235,2.7238,2.7245,2.7253,2.7252,2.728,2.728,2.7282,2.7285,2.729,2.7292,2.7298,2.7306,2.7324,2.7327,2.7323,2.7316,2.731,2.7313,2.7383,2.7328,2.7329,2.7329,2.733,2.733,2.7165,2.716,2.7176,2.718,2.7189,2.7197,2.7195,2.721,2.7212,2.7219,2.7234,2.7233,2.7245,2.7256,2.7262,2.7262,2.7273,2.7267,2.7265,2.7263,2.726,2.7311,2.7263,2.7263,2.7263,2.7263,2.7263,0,2.7107,2.7119,2.7122,2.7134,2.7137,2.7157,2.7167,2.7168,2.7168,2.7178,2.7182,2.7184,2.7187,2.7204,2.7208,2.7204,2.7213,2.7204,2.7204,2.7206,2.725,2.7253,2.7197,2.7197,2.7197,2.7198,2.7198,2.7198,2.7077,2.7071,2.7085,2.7083,2.7095,2.7096,2.7101,2.7108,2.7117,2.7118,2.7122,2.7133,2.7146,2.7152,2.7155,2.716,2.716,2.7149,2.7156,2.7196,2.7203,2.7209,2.7211,2.7149,2.7148,2.7112,2.7112,2.7111]}]]